Waarnemingen

Advertentie
Mijn weer
Chivenor, Groot Brittannië (3707): temperatuur & dauwpunt: 13.07.2018 05:00:00 - 19.07.2018 05:00:00 (BST)Chivenor, Groot Brittannië (3707): temperatuur -20cm & temperatuur -100cm: 13.07.2018 05:00:00 - 19.07.2018 05:00:00 (BST)Chivenor, Groot Brittannië (3707): windsnelheid: 13.07.2018 05:00:00 - 19.07.2018 05:00:00 (BST)Chivenor, Groot Brittannië (3707): windrichting: 13.07.2018 05:00:00 - 19.07.2018 05:00:00 (BST)Chivenor, Groot Brittannië (3707): luchtdruk: 13.07.2018 05:00:00 - 19.07.2018 05:00:00 (BST)Chivenor, Groot Brittannië (3707): zicht: 13.07.2018 05:00:00 - 19.07.2018 05:00:00 (BST)Chivenor, Groot Brittannië (3707): neerslag: 13.07.2018 05:00:00 - 19.07.2018 05:00:00 (BST)
Datum & Tijd tt [°C] td [°C] tt -20cm [°C] tt -100cm [°C] ff [km/u] ff [kn] dd ppp [hPa] vv [km] rr [mm]
19.07.2018 05:00:00 - - - - - - - - - 0,0
19.07.2018 04:00:00 11,5 9,7 - - 9 5 O 1020,2 50 0,0
19.07.2018 03:00:00 12,4 10,2 - - 8 4 O 1020,1 50 0,0
19.07.2018 02:00:00 13,2 10,6 - - 5 3 ONO 1020,2 50 0,0
19.07.2018 01:00:00 13,6 9,2 - - 4 2 ZO 1020,2 50 0,0
19.07.2018 00:00:00 13,9 9,1 - - 2 1 ONO 1020,1 50 0,0
18.07.2018 23:00:00 15,5 10,2 - - 0 0 N 1020,1 50 0,0
18.07.2018 22:00:00 16,0 10,8 - - 5 3 NW 1019,9 45 0,0
18.07.2018 21:00:00 18,5 11,5 - - 9 5 NW 1019,7 45 0,0
18.07.2018 20:00:00 19,6 11,8 - - 11 6 NW 1019,6 45 0,0
18.07.2018 19:00:00 19,3 11,9 - - 15 8 W 1019,2 45 0,0
18.07.2018 18:00:00 19,6 11,5 - - 16 9 WNW 1019,1 45 0,0
18.07.2018 17:00:00 21,2 10,8 - - 16 9 WNW 1019,1 45 0,0
18.07.2018 16:00:00 21,2 10,1 - - 15 8 WNW 1019,0 40 0,0
18.07.2018 15:00:00 21,7 11,5 - - 18 10 WNW 1018,8 40 0,0
18.07.2018 14:00:00 20,9 12,2 - - 21 11 WNW 1018,7 25 0,0
18.07.2018 13:00:00 19,2 13,3 - - 21 11 WNW 1018,6 30 0,0
18.07.2018 12:00:00 20,2 10,9 - - 8 4 W 1018,4 40 0,0
18.07.2018 11:00:00 19,8 13,8 - - 8 4 W 1018,5 35 0,0
18.07.2018 10:00:00 19,0 14,3 20,2 20,0 4 2 W 1018,4 30 0,0
18.07.2018 09:00:00 17,7 13,7 - - 4 2 ZZO 1018,4 40 0,0
18.07.2018 08:00:00 17,2 13,5 - - 5 3 O 1018,0 50 0,0
18.07.2018 07:00:00 16,0 13,2 - - 9 5 O 1017,7 40 0,0
18.07.2018 06:00:00 15,3 12,7 - - 9 5 OZO 1017,4 50 0,0
18.07.2018 05:00:00 15,7 12,9 - - 9 5 ZO 1017,3 50 0,0
18.07.2018 04:00:00 15,5 12,3 - - 9 5 OZO 1017,2 50 0,0
18.07.2018 03:00:00 13,3 11,3 - - 0 0 N - - 0,0
18.07.2018 02:00:00 16,6 12,6 - - 5 3 OZO 1017,4 50 0,0
18.07.2018 01:00:00 16,7 12,5 - - 4 2 O 1017,6 50 0,0
18.07.2018 00:00:00 17,1 12,7 - - 5 3 ZZW 1017,7 45 0,0
17.07.2018 23:00:00 17,4 12,7 - - 9 5 ZZW 1017,7 50 0,0
17.07.2018 22:00:00 18,0 12,8 - - 9 5 ZW 1017,6 50 0,0
17.07.2018 21:00:00 18,4 13,1 - - 15 8 WZW 1017,2 45 0,0
17.07.2018 20:00:00 18,9 11,7 - - 18 10 W 1017,2 50 0,0
17.07.2018 19:00:00 19,1 12,2 - - 11 6 W 1016,9 40 0,0
17.07.2018 18:00:00 19,4 11,9 - - 16 9 W 1017,0 50 0,0
17.07.2018 17:00:00 19,7 12,4 - - 16 9 W 1017,1 45 0,0
17.07.2018 16:00:00 19,5 12,4 - - 13 7 W 1017,3 50 0,0
17.07.2018 15:00:00 19,4 10,9 - - 15 8 WZW 1017,5 50 0,0
17.07.2018 14:00:00 19,2 11,1 - - 16 9 W 1017,4 40 0,0
17.07.2018 13:00:00 19,1 12,1 - - 13 7 ZW 1017,5 30 0,0
17.07.2018 12:00:00 18,1 11,1 - - 5 3 ZW 1017,4 50 0,0
17.07.2018 11:00:00 17,3 12,0 - - 16 9 WNW 1017,4 45 0,0
17.07.2018 10:00:00 17,1 11,5 20,0 20,0 9 5 W 1016,9 35 0,0
17.07.2018 09:00:00 16,4 12,5 - - 9 5 WNW 1016,7 45 0,0
17.07.2018 08:00:00 14,6 13,1 - - 9 5 O 1016,4 35 0,0
17.07.2018 07:00:00 13,5 12,3 - - 11 6 O 1016,3 35 0,0
17.07.2018 06:00:00 12,8 11,7 - - 9 5 O 1015,9 40 0,0
17.07.2018 05:00:00 12,9 11,7 - - 13 7 O 1015,8 40 0,0
17.07.2018 04:00:00 13,0 11,9 - - 9 5 O 1016,0 40 0,0
17.07.2018 03:00:00 12,8 11,5 - - 11 6 O 1016,1 40 0,0
17.07.2018 02:00:00 13,4 12,2 - - 9 5 O 1016,1 45 0,0
17.07.2018 01:00:00 14,3 12,9 - - 5 3 O 1016,3 40 0,0
17.07.2018 00:00:00 14,7 12,7 - - 2 1 NO 1016,4 50 0,0
16.07.2018 23:00:00 14,9 12,8 - - 4 2 WNW 1016,4 30 0,0
16.07.2018 22:00:00 15,1 12,8 - - 8 4 WNW 1016,2 26 0,0
16.07.2018 21:00:00 16,8 12,5 - - 11 6 W 1015,8 40 0,0
16.07.2018 20:00:00 17,4 11,9 - - 15 8 WNW 1015,5 27 0,0
16.07.2018 19:00:00 18,4 12,2 - - 21 11 WNW 1015,3 50 0,0
16.07.2018 18:00:00 19,0 12,4 - - 26 14 WNW 1015,1 45 0,0
16.07.2018 17:00:00 19,5 12,8 - - 22 12 W 1015,0 35 0,0
16.07.2018 16:00:00 19,9 13,8 - - 22 12 W 1015,0 30 0,0
16.07.2018 15:00:00 19,0 15,1 - - 22 12 W 1014,9 35 0,2
16.07.2018 14:00:00 17,5 16,2 - - 21 11 W 1015,0 20 0,0
16.07.2018 13:00:00 17,7 16,7 - - 2 1 ZW 1014,6 50 1,0
16.07.2018 12:00:00 16,6 15,9 - - 18 10 W 1014,6 2,7 1,0
16.07.2018 11:00:00 19,7 14,9 - - 21 11 W 1014,1 45 0,0
16.07.2018 10:00:00 20,8 15,5 21,4 20,0 15 8 ZW 1013,9 30 0,0
16.07.2018 09:00:00 19,6 16,1 - - 8 4 OZO 1014,2 17 0,0
16.07.2018 08:00:00 17,5 14,5 - - 8 4 O 1014,3 22 0,0
16.07.2018 07:00:00 16,6 14,1 - - 9 5 ONO 1014,3 21 0,0
16.07.2018 06:00:00 16,4 14,0 - - 9 5 O 1014,3 28 0,0
16.07.2018 05:00:00 16,1 14,2 - - 11 6 O 1014,5 23 0,0
16.07.2018 04:00:00 16,1 14,1 - - 8 4 O 1014,7 30 0,0
16.07.2018 03:00:00 16,3 14,0 - - 8 4 O 1015,1 40 0,0
16.07.2018 02:00:00 17,0 14,3 - - 8 4 O 1015,6 29 0,0
16.07.2018 01:00:00 17,4 14,5 - - 4 2 O 1015,9 45 0,0
16.07.2018 00:00:00 17,7 14,6 - - 5 3 O 1015,9 45 0,0
15.07.2018 23:00:00 18,2 14,9 - - 4 2 O 1015,9 40 0,0
15.07.2018 22:00:00 18,6 14,7 - - 0 0 N 1015,8 50 0,0
15.07.2018 21:00:00 18,7 14,9 - - 5 3 W 1015,6 40 0,0
15.07.2018 20:00:00 19,1 14,9 - - 8 4 W 1015,6 50 0,0
15.07.2018 19:00:00 21,4 13,6 - - 15 8 WNW 1015,6 50 0,0
15.07.2018 18:00:00 22,3 14,7 - - 18 10 WNW 1015,8 45 0,0
15.07.2018 17:00:00 23,0 14,2 - - 21 11 WNW 1016,1 40 0,0
15.07.2018 16:00:00 23,0 11,5 - - 22 12 WNW 1016,3 35 0,0
15.07.2018 15:00:00 23,5 11,8 - - 22 12 WNW 1016,4 50 0,0
15.07.2018 14:00:00 23,3 12,7 - - 18 10 WNW 1016,6 26 0,0
15.07.2018 13:00:00 23,0 12,7 - - 21 11 WNW 1016,9 45 0,0
15.07.2018 12:00:00 23,2 12,7 - - 9 5 WZW 1017,0 30 0,0
15.07.2018 11:00:00 22,3 12,8 - - 4 2 WZW 1017,3 26 0,0
15.07.2018 10:00:00 19,5 15,4 20,7 20,0 8 4 O 1017,5 50 0,0
15.07.2018 09:00:00 15,1 14,7 - - 13 7 OZO 1018,0 10 0,0
15.07.2018 08:00:00 13,5 13,1 - - 15 8 O 1018,2 3,4 0,0
15.07.2018 07:00:00 12,6 11,6 - - 15 8 O 1018,1 21 0,0
15.07.2018 06:00:00 12,0 11,2 - - 11 6 O 1017,9 16 0,0
15.07.2018 05:00:00 11,9 11,2 - - 11 6 O 1017,9 18 0,0
15.07.2018 04:00:00 12,5 11,5 - - 11 6 O 1018,4 22 0,0
15.07.2018 03:00:00 12,7 11,8 - - 11 6 O 1018,7 22 0,0
15.07.2018 02:00:00 13,0 12,1 - - 9 5 O 1018,8 14 0,0
15.07.2018 01:00:00 14,1 12,8 - - 8 4 O 1019,1 24 0,0
15.07.2018 00:00:00 15,4 13,6 - - 0 0 N 1019,3 45 0,0
14.07.2018 23:00:00 15,9 13,8 - - 2 1 WNW 1019,4 50 0,0
14.07.2018 22:00:00 17,1 14,6 - - 4 2 W 1019,3 50 0,0
14.07.2018 21:00:00 18,2 14,5 - - 8 4 WNW 1019,5 50 0,0
14.07.2018 20:00:00 19,6 14,5 - - 16 9 WNW 1019,7 30 0,0
14.07.2018 19:00:00 20,4 14,1 - - 18 10 WNW 1019,8 40 0,0
14.07.2018 18:00:00 20,9 15,2 - - 22 12 WNW 1020,0 27 0,0
14.07.2018 17:00:00 21,5 15,3 - - 21 11 WNW 1020,1 35 0,0
14.07.2018 16:00:00 21,5 14,5 - - 18 10 WNW 1020,3 23 0,0
14.07.2018 15:00:00 21,8 14,8 - - 21 11 WNW 1020,6 30 0,0
14.07.2018 14:00:00 21,6 13,7 - - 16 9 WNW 1020,9 40 0,0
14.07.2018 13:00:00 21,2 13,0 - - 13 7 W 1021,0 45 0,0
14.07.2018 12:00:00 21,0 13,0 - - 11 6 WZW 1021,3 40 0,0
14.07.2018 11:00:00 20,6 12,2 - - 13 7 WZW 1021,6 50 0,0
14.07.2018 10:00:00 18,3 11,9 20,7 20,0 8 4 WZW 1021,6 35 0,0
14.07.2018 09:00:00 16,9 13,7 - - 2 1 ZO 1021,9 30 0,0
14.07.2018 08:00:00 13,7 12,3 - - 8 4 O 1021,8 15 0,0
14.07.2018 07:00:00 12,1 11,4 - - 9 5 O 1021,7 10 0,0
14.07.2018 06:00:00 10,2 9,4 - - 9 5 O 1021,8 11 0,0
14.07.2018 05:00:00 10,7 10,0 - - 9 5 O 1021,8 12 0,0
14.07.2018 04:00:00 10,9 10,1 - - 9 5 O 1022,0 8 0,0
14.07.2018 03:00:00 11,8 10,8 - - 9 5 O 1022,2 10 0,0
14.07.2018 02:00:00 13,1 11,9 - - 4 2 O 1022,2 13 0,0
14.07.2018 01:00:00 14,0 12,5 - - 4 2 WNW 1022,3 17 0,0
14.07.2018 00:00:00 14,7 13,1 - - 8 4 W 1022,4 19 0,0
13.07.2018 23:00:00 15,6 13,5 - - 13 7 W 1022,5 30 0,0
13.07.2018 22:00:00 15,9 12,8 - - 9 5 W 1022,3 40 0,0
13.07.2018 21:00:00 16,6 12,6 - - 11 6 W 1022,1 45 0,0
13.07.2018 20:00:00 18,3 12,8 - - 15 8 W 1022,0 50 0,0
13.07.2018 19:00:00 18,7 13,2 - - 16 9 W 1021,9 28 0,0
13.07.2018 18:00:00 19,7 14,1 - - 16 9 W 1021,9 29 0,0
13.07.2018 17:00:00 19,6 14,5 - - 18 10 W 1022,0 16 0,0
13.07.2018 16:00:00 19,2 14,5 - - 21 11 WNW 1022,1 13 0,0
13.07.2018 15:00:00 17,9 14,2 - - 21 11 W 1022,5 11 0,0
13.07.2018 14:00:00 19,6 14,7 - - 21 11 WNW 1022,3 19 0,0
13.07.2018 13:00:00 21,0 14,8 - - 15 8 W 1022,4 25 0,0
13.07.2018 12:00:00 19,8 14,7 - - 11 6 WZW 1022,7 14 0,0
13.07.2018 11:00:00 17,7 14,1 - - 9 5 W 1022,8 24 0,0
13.07.2018 10:00:00 16,0 14,1 21,0 20,0 5 3 W 1022,7 8 0,0
13.07.2018 09:00:00 15,6 13,9 - - 8 4 ZW 1022,7 7 0,0
13.07.2018 08:00:00 15,9 14,1 - - 5 3 WNW 1022,5 11 0,0
13.07.2018 07:00:00 15,6 14,3 - - 4 2 WNW 1022,3 8 0,0
13.07.2018 06:00:00 15,4 14,2 - - 5 3 W 1022,2 8 0,0
13.07.2018 05:00:00 15,3 14,4 - - 4 2 N 1022,3 8 0,0

tt = temperatuur
td = dauwpunt
tt -20cm = temperatuur -20cm
tt -100cm = temperatuur -100cm
ff = windsnelheid
dd = windrichting
ppp = luchtdruk
vv = zicht
rr = neerslag

Weerstations in de omgeving